Location: Newark
(7.1028°S, 35.3258°W)
Time: 16:12:14
(UTC+00:00)

Altair - Visible Passes

Search period start: 19 February 2020 00:00
Search period end: 29 February 2020 00:00
Orbit: 1502 x 1682 km, 47.2° (Epoch: 18 February)

Date Brightness Start Highest point End Pass type
(mag) Time Alt. Az. Time Alt. Az. Time Alt. Az.
19 Feb 9.6 01:07:22 10° SW 01:07:59 12° SW 01:07:59 12° SW visible
19 Feb 8.6 22:39:30 10° S 22:46:13 24° SE 22:46:13 24° SE visible
20 Feb 9.3 00:42:09 10° SW 00:44:14 19° SW 00:44:14 19° SW visible
20 Feb 8.6 22:14:43 10° S 22:21:13 21° SE 22:22:33 20° SE visible
21 Feb 8.8 00:16:58 10° SW 00:20:34 28° SW 00:20:34 28° SW visible
21 Feb 8.7 21:50:01 10° S 21:55:57 18° SE 21:58:56 16° ESE visible
21 Feb 8.3 23:51:48 10° SW 23:56:58 39° SW 23:56:58 39° SW visible
22 Feb 8.9 21:25:23 10° S 21:30:40 16° SE 21:35:24 11° ESE visible
22 Feb 7.8 23:26:40 10° SW 23:33:26 55° SSW 23:33:26 55° SSW visible
23 Feb 9.0 21:00:52 10° S 21:05:22 14° SE 21:09:48 10° ESE visible
23 Feb 7.4 23:01:33 10° SW 23:09:59 70° SSE 23:09:59 70° SSE visible
24 Feb 7.3 22:36:28 10° SSW 22:45:37 66° SE 22:46:37 62° E visible
25 Feb 9.5 00:43:02 10° W 00:44:40 15° W 00:44:40 15° W visible
25 Feb 7.5 22:11:23 10° SSW 22:20:27 59° SE 22:23:19 44° ENE visible
26 Feb 9.1 00:17:26 10° WSW 00:21:23 22° W 00:21:23 22° W visible
26 Feb 7.6 21:46:22 10° SSW 21:55:19 53° SE 22:00:07 28° ENE visible
26 Feb 8.7 23:51:54 10° WSW 23:58:11 30° WNW 23:58:11 30° WNW visible
27 Feb 7.8 21:21:20 10° SSW 21:30:08 47° SE 21:37:00 17° ENE visible
27 Feb 8.4 23:26:26 10° WSW 23:34:33 36° NW 23:35:05 35° NW visible
28 Feb 7.9 20:56:20 10° SSW 21:04:58 42° SE 21:13:26 10° ENE visible
28 Feb 8.3 23:01:00 10° WSW 23:09:24 40° NW 23:12:04 34° NNW visible
